Weather History for KTRI - July, 2012

Change the Weather History Date:

Sunday, July 29, 2012

  Actual Average Record
Temperature  
Mean Temperature 75 °F 74 °F  
Max Temperature 87 °F 85 °F 102 °F (1952)
Min Temperature 63 °F 64 °F 55 °F (2013)
Degree Days  
Heating Degree Days 0 0  
Month to date heating degree days 0 0  
Since 1 June heating degree days 5 11  
Since 1 July heating degree days 0 0  
Cooling Degree Days 10 10  
Month to date cooling degree days 387 287  
Year to date cooling degree days 781 566  
Since 1 June cooling degree days 619 493  
Growing Degree Days 24 (Base 50)    
Moisture  
Dew Point 64 °F    
Average Humidity 70    
Maximum Humidity 100    
Minimum Humidity 40    
Precipitation  
Precipitation 0.00 in 0.15 in 1.77 in (2001)
Month to date precipitation 12.19 4.39  
Year to date precipitation 30.18 25.68  
Snow  
Snow 0.00 in 0.00 in - ()
Month to date snowfall 0.0 0.0  
Since 1 June snowfall 0.0 0.0  
Since 1 July snowfall 0.0 0.0  
Snow Depth 0.00 in    
Sea Level Pressure  
Sea Level Pressure 30.01 in    
Wind  
Wind Speed 1 mph (NE)    
Max Wind Speed 7 mph    
Max Gust Speed 9 mph    
Visibility 7 miles    
Events Fog    
T = Trace of Precipitation, MM = Missing Value Source: NWS Daily Summary

Daily Weather History Graph

Daily Weather History Graph

Search for Another Location

Airport or City:

Trip Planner

Search our weather history database for the weather conditions in past years. The results will help you decide how hot, cold, wet, or windy it might be!

Date:

Astronomy

Jul. 29, 2012 Rise Set
Actual Time 6:33 AM EDT 8:37 PM EDT
Civil Twilight 6:05 AM EDT 9:06 PM EDT
Nautical Twilight 5:30 AM EDT 9:41 PM EDT
Astronomical Twilight 4:52 AM EDT 10:18 PM EDT
Moon 5:41 PM EDT (7/29) 2:48 AM EDT (7/29)
Length of Visible Light 15h 01m
Length of Day
14h 03m
Waxing Gibbous, 85% of the Moon is Illuminated
Jul 29
Waxing Gibbous
Aug 1
Full
Aug 9
Last Quarter
Aug 17
New
Aug 24
First Quarter

Hourly Weather History & Observations

Time (EDT) Temp. Heat Index Dew Point Humidity Pressure Visibility Wind Dir Wind Speed Gust Speed Precip Events Conditions
12:53 AM 69.1 °F - 63.0 °F 81% 30.01 in 10.0 mi Calm Calm - N/A   Scattered Clouds
1:53 AM 66.9 °F - 64.0 °F 90% 30.00 in 10.0 mi Calm Calm - N/A   Scattered Clouds
2:53 AM 66.0 °F - 63.0 °F 90% 29.99 in 10.0 mi Calm Calm - N/A   Clear
3:53 AM 64.9 °F - 64.0 °F 97% 29.99 in 10.0 mi NNE 3.5 mph - N/A   Partly Cloudy
4:53 AM 64.9 °F - 63.0 °F 93% 29.98 in 10.0 mi Calm Calm - N/A   Clear
5:53 AM 64.0 °F - 63.0 °F 96% 29.99 in 10.0 mi SE 3.5 mph - N/A   Clear
6:53 AM 63.0 °F - 62.1 °F 97% 30.00 in 2.5 mi Calm Calm - N/A   Partly Cloudy
7:07 AM 62.6 °F - 62.6 °F 100% 30.07 in 1.0 mi Calm Calm - N/A Fog Patches of Fog
7:19 AM 62.6 °F - 62.6 °F 100% 30.08 in 0.2 mi Calm Calm - N/A Fog Patches of Fog
7:25 AM 64.4 °F - 64.4 °F 100% 30.08 in 0.2 mi Calm Calm - N/A Fog Fog
7:53 AM 66.0 °F - 64.9 °F 96% 30.02 in 0.2 mi Calm Calm - N/A Fog Fog
7:58 AM 66.2 °F - 66.2 °F 100% 30.09 in 0.1 mi Calm Calm - N/A Fog Fog
8:25 AM 66.2 °F - 66.2 °F 100% 30.10 in 0.5 mi Calm Calm - N/A Fog Fog
8:38 AM 66.2 °F - 66.2 °F 100% 30.10 in 2.0 mi Calm Calm - N/A   Scattered Clouds
8:53 AM 69.1 °F - 66.9 °F 93% 30.03 in 4.0 mi Calm Calm - N/A   Partly Cloudy
9:53 AM 73.0 °F - 66.0 °F 79% 30.04 in 10.0 mi Calm Calm - N/A   Partly Cloudy
10:53 AM 79.0 °F - 64.9 °F 62% 30.05 in 10.0 mi Calm Calm - N/A   Partly Cloudy
11:53 AM 80.1 °F 81.7 °F 64.0 °F 58% 30.04 in 10.0 mi Calm Calm - N/A   Scattered Clouds
12:53 PM 82.9 °F 84.4 °F 64.0 °F 53% 30.02 in 10.0 mi Variable 3.5 mph - N/A   Scattered Clouds
1:53 PM 82.9 °F 83.7 °F 62.1 °F 49% 30.01 in 10.0 mi NNE 3.5 mph - N/A   Mostly Cloudy
2:53 PM 84.9 °F 84.8 °F 60.1 °F 43% 29.99 in 10.0 mi Calm Calm - N/A   Scattered Clouds
3:53 PM 84.0 °F 83.8 °F 59.0 °F 43% 29.98 in 10.0 mi Calm Calm - N/A   Scattered Clouds
4:53 PM 86.0 °F 85.4 °F 59.0 °F 40% 29.95 in 10.0 mi Variable 5.8 mph - N/A   Scattered Clouds
5:53 PM 82.0 °F 83.1 °F 63.0 °F 52% 29.96 in 10.0 mi North 3.5 mph - N/A   Mostly Cloudy
6:53 PM 84.0 °F 84.9 °F 63.0 °F 49% 29.96 in 10.0 mi Calm Calm - N/A   Scattered Clouds
7:53 PM 81.0 °F 82.2 °F 63.0 °F 54% 29.96 in 10.0 mi Calm Calm - N/A   Scattered Clouds
8:53 PM 73.9 °F - 64.9 °F 73% 29.98 in 10.0 mi Calm Calm - N/A   Scattered Clouds
9:53 PM 71.1 °F - 64.0 °F 78% 29.99 in 10.0 mi Calm Calm - N/A   Scattered Clouds
10:53 PM 71.1 °F - 63.0 °F 75% 29.98 in 10.0 mi Calm Calm - N/A   Scattered Clouds
11:53 PM 66.9 °F - 64.0 °F 90% 29.99 in 9.0 mi Calm Calm - N/A   Scattered Clouds